QPF
0.02 0.02 0.02 0.01 0.01 0.01 0.01 0.01 0.01 0.02 0.01 0.02 0.02 0.02 0.02 0.01 0.02 0.01 0.02 0.02 0.02 0.02 0.02 0.01 0.02 0.01 0.01 0.01 0.01 0.01 0.02 0.01 0.01 0.01 0.02 0.01 0.01 0.00 0.01 0.01 0.01 0.01 0.01
0.03 0.03 0.03 0.01 0.01 0.01 0.01 0.01 0.01 0.01 0.01 0.02 0.03 0.03 0.02 0.02 0.02 0.01 0.01 0.03 0.04 0.02 0.03 0.03 0.02 0.01 0.01 0.01 0.01 0.02 0.02 0.02 0.01 0.01 0.01 0.01 0.01 0.01 0.00 0.01 0.00 0.00 0.01
0.03 0.03 0.03 0.02 0.02 0.01 0.01 0.01 0.02 0.02 0.02 0.03 0.04 0.03 0.02 0.02 0.01 0.00 0.01 0.01 0.02 0.02 0.03 0.04 0.04 0.04 0.03 0.02 0.02 0.02 0.03 0.02 0.02 0.01 0.01 0.01 0.01 0.01 0.01 0.00 0.00 0.00 0.00
0.03 0.03 0.02 0.02 0.03 0.03 0.02 0.02 0.02 0.02 0.02 0.03 0.03 0.03 0.03 0.02 0.01 0.01 0.01 0.01 0.01 0.01 0.02 0.04 0.04 0.05 0.05 0.05 0.04 0.03 0.04 0.03 0.02 0.02 0.02 0.01 0.01 0.01 0.01 0.00 0.00 0.00 0.00
0.03 0.04 0.03 0.03 0.03 0.03 0.03 0.01 0.02 0.03 0.04 0.04 0.04 0.04 0.05 0.05 0.02 0.01 0.01 0.00 0.01 0.01 0.01 0.02 0.04 0.04 0.04 0.06 0.06 0.06 0.05 0.05 0.04 0.03 0.02 0.02 0.01 0.01 0.01 0.01 0.01 0.01 0.01
0.04 0.04 0.04 0.05 0.04 0.03 0.03 0.02 0.01 0.02 0.04 0.04 0.06 0.06 0.06 0.04 0.02 0.01 0.01 0.01 0.02 0.01 0.00 0.00 0.01 0.02 0.04 0.05 0.07 0.06 0.06 0.05 0.04 0.03 0.02 0.02 0.02 0.02 0.02 0.01 0.01 0.01 0.01
0.06 0.05 0.05 0.05 0.03 0.03 0.02 0.03 0.03 0.03 0.05 0.04 0.06 0.05 0.04 0.03 0.02 0.02 0.01 0.02 0.02 0.01 0.01 0.01 0.01 0.01 0.01 0.03 0.04 0.04 0.06 0.06 0.05 0.03 0.02 0.02 0.01 0.02 0.02 0.01 0.01 0.01 0.01
0.06 0.05 0.05 0.05 0.03 0.02 0.03 0.03 0.03 0.03 0.04 0.04 0.04 0.04 0.03 0.01 0.01 0.02 0.01 0.02 0.02 0.02 0.01 0.02 0.01 0.01 0.00 0.01 0.01 0.03 0.04 0.06 0.07 0.05 0.04 0.03 0.03 0.02 0.01 0.01 0.01 0.01 0.02
0.06 0.05 0.04 0.05 0.04 0.03 0.03 0.03 0.04 0.04 0.04 0.03 0.03 0.02 0.01 0.02 0.01 0.01 0.01 0.02 0.02 0.01 0.01 0.01 0.01 0.01 0.01 0.01 0.01 0.02 0.03 0.05 0.07 0.07 0.06 0.05 0.03 0.02 0.01 0.01 0.02 0.02 0.01
0.07 0.07 0.07 0.06 0.05 0.04 0.04 0.04 0.04 0.04 0.04 0.04 0.03 0.01 0.01 0.02 0.01 0.00 0.00 0.01 0.01 0.01 0.02 0.02 0.02 0.02 0.01 0.01 0.01 0.01 0.01 0.02 0.04 0.06 0.08 0.06 0.04 0.03 0.02 0.02 0.03 0.02 0.02
0.08 0.07 0.07 0.08 0.07 0.06 0.05 0.05 0.05 0.04 0.03 0.04 0.04 0.03 0.03 0.02 0.01 0.01 0.00 0.01 0.01 0.01 0.02 0.02 0.02 0.02 0.02 0.02 0.02 0.01 0.00 0.01 0.02 0.04 0.05 0.05 0.06 0.05 0.04 0.03 0.03 0.04 0.04
0.10 0.08 0.08 0.10 0.10 0.08 0.06 0.05 0.05 0.04 0.04 0.04 0.04 0.03 0.03 0.02 0.02 0.02 0.01 0.00 0.01 0.01 0.01 0.01 0.01 0.02 0.02 0.02 0.02 0.01 0.00 0.02 0.02 0.02 0.03 0.03 0.04 0.05 0.05 0.04 0.04 0.05 0.06
0.08 0.09 0.09 0.11 0.12 0.11 0.08 0.07 0.06 0.05 0.05 0.04 0.03 0.03 0.03 0.02 0.03 0.03 0.03 0.02 0.01 0.01 0.01 0.01 0.00 0.01 0.01 0.01 0.01 0.01 0.01 0.03 0.02 0.02 0.02 0.01 0.02 0.02 0.03 0.04 0.05 0.06 0.07
0.07 0.12 0.13 0.14 0.14 0.14 0.12 0.09 0.08 0.07 0.06 0.06 0.05 0.05 0.04 0.03 0.05 0.06 0.04 0.03 0.01 0.01 0.01 0.01 0.01 0.01 0.02 0.01 0.02 0.03 0.02 0.03 0.03 0.03 0.02 0.02 0.02 0.02 0.01 0.02 0.03 0.03 0.04
0.09 0.12 0.14 0.13 0.12 0.11 0.10 0.10 0.09 0.09 0.08 0.07 0.06 0.06 0.05 0.05 0.04 0.04 0.04 0.03 0.02 0.01 0.01 0.02 0.02 0.02 0.02 0.03 0.04 0.04 0.03 0.03 0.04 0.04 0.04 0.04 0.03 0.03 0.02 0.01 0.01 0.01 0.01
0.08 0.08 0.08 0.09 0.10 0.09 0.09 0.10 0.10 0.10 0.10 0.09 0.09 0.07 0.05 0.06 0.06 0.05 0.04 0.04 0.04 0.03 0.02 0.02 0.02 0.02 0.03 0.04 0.04 0.04 0.04 0.05 0.04 0.04 0.05 0.05 0.04 0.03 0.02 0.02 0.02 0.02 0.01
0.07 0.07 0.07 0.08 0.10 0.08 0.08 0.09 0.09 0.10 0.10 0.09 0.10 0.09 0.09 0.08 0.08 0.07 0.06 0.05 0.04 0.04 0.03 0.02 0.03 0.02 0.02 0.03 0.03 0.04 0.06 0.07 0.06 0.06 0.06 0.06 0.05 0.03 0.03 0.02 0.02 0.01 0.01
0.05 0.06 0.08 0.09 0.10 0.10 0.09 0.09 0.10 0.09 0.09 0.09 0.10 0.11 0.10 0.10 0.09 0.08 0.07 0.06 0.05 0.05 0.05 0.05 0.05 0.04 0.03 0.03 0.03 0.04 0.05 0.06 0.05 0.06 0.05 0.06 0.07 0.07 0.06 0.04 0.04 0.03 0.03
0.06 0.08 0.10 0.10 0.11 0.13 0.14 0.15 0.14 0.14 0.14 0.13 0.13 0.13 0.12 0.11 0.09 0.09 0.08 0.07 0.06 0.06 0.07 0.07 0.06 0.06 0.05 0.04 0.04 0.05 0.05 0.04 0.04 0.04 0.05 0.06 0.06 0.07 0.07 0.06 0.05 0.04 0.04
0.06 0.08 0.08 0.09 0.09 0.09 0.11 0.14 0.17 0.15 0.13 0.11 0.10 0.10 0.11 0.13 0.12 0.12 0.10 0.08 0.08 0.08 0.09 0.10 0.10 0.09 0.09 0.09 0.08 0.07 0.07 0.06 0.05 0.05 0.05 0.05 0.06 0.06 0.06 0.06 0.05 0.05 0.06
0.04 0.06 0.07 0.07 0.06 0.06 0.07 0.08 0.10 0.10 0.09 0.10 0.12 0.13 0.13 0.13 0.13 0.12 0.11 0.11 0.11 0.12 0.13 0.13 0.15 0.16 0.16 0.16 0.15 0.13 0.10 0.08 0.06 0.05 0.05 0.06 0.06 0.07 0.07 0.06 0.06 0.05 0.06
0.06 0.05 0.05 0.05 0.05 0.06 0.07 0.10 0.12 0.12 0.12 0.11 0.10 0.10 0.10 0.10 0.10 0.10 0.10 0.10 0.10 0.12 0.14 0.14 0.14 0.13 0.12 0.12 0.12 0.11 0.10 0.09 0.08 0.08 0.08 0.10 0.10 0.09 0.07 0.06 0.05 0.05 0.05
0.04 0.05 0.05 0.04 0.04 0.06 0.07 0.09 0.13 0.12 0.11 0.12 0.13 0.15 0.13 0.11 0.09 0.08 0.09 0.08 0.07 0.08 0.07 0.07 0.07 0.08 0.08 0.08 0.09 0.11 0.12 0.14 0.16 0.16 0.15 0.14 0.11 0.09 0.07 0.06 0.05 0.05 0.05
0.04 0.04 0.04 0.04 0.04 0.06 0.09 0.09 0.11 0.12 0.14 0.17 0.18 0.19 0.18 0.15 0.12 0.09 0.09 0.08 0.07 0.07 0.07 0.07 0.10 0.11 0.12 0.11 0.12 0.13 0.14 0.14 0.14 0.13 0.11 0.10 0.09 0.08 0.06 0.05 0.05 0.04 0.04
0.05 0.05 0.05 0.04 0.04 0.05 0.07 0.08 0.10 0.11 0.13 0.12 0.10 0.09 0.09 0.08 0.08 0.07 0.06 0.06 0.05 0.05 0.07 0.07 0.10 0.12 0.13 0.13 0.12 0.10 0.11 0.11 0.11 0.10 0.09 0.09 0.08 0.07 0.06 0.05 0.04 0.04 0.03
0.06 0.07 0.07 0.06 0.05 0.05 0.06 0.06 0.07 0.08 0.10 0.10 0.09 0.08 0.10 0.10 0.09 0.08 0.06 0.06 0.06 0.05 0.05 0.05 0.05 0.05 0.06 0.08 0.09 0.08 0.07 0.06 0.06 0.06 0.05 0.05 0.06 0.06 0.06 0.05 0.03 0.03 0.02
MSLP
1018.46 1018.62 1018.70 1018.72 1018.73 1018.75 1018.82 1018.95 1019.14 1019.38 1019.63 1019.88 1020.11 1020.30 1020.46 1020.59 1020.72 1020.85 1020.99 1021.14 1021.30 1021.46 1021.60 1021.72 1021.83 1021.92 1022.02 1022.14 1022.28 1022.44 1022.64 1022.85 1023.08 1023.30 1023.51 1023.70 1023.88 1024.04 1024.20 1024.35 1024.49 1024.62 1024.75
1018.52 1018.69 1018.79 1018.83 1018.86 1018.90 1018.98 1019.12 1019.32 1019.56 1019.83 1020.10 1020.34 1020.55 1020.71 1020.84 1020.94 1021.03 1021.13 1021.24 1021.36 1021.50 1021.64 1021.77 1021.90 1022.03 1022.15 1022.28 1022.42 1022.57 1022.75 1022.94 1023.15 1023.36 1023.57 1023.77 1023.96 1024.14 1024.31 1024.46 1024.60 1024.73 1024.84
1018.45 1018.64 1018.78 1018.87 1018.95 1019.04 1019.16 1019.32 1019.54 1019.80 1020.09 1020.37 1020.63 1020.84 1020.99 1021.10 1021.17 1021.22 1021.27 1021.32 1021.40 1021.50 1021.62 1021.76 1021.91 1022.06 1022.20 1022.35 1022.50 1022.66 1022.82 1023.00 1023.19 1023.39 1023.60 1023.80 1024.00 1024.19 1024.37 1024.53 1024.67 1024.79 1024.90
1018.25 1018.48 1018.68 1018.85 1019.00 1019.16 1019.33 1019.54 1019.79 1020.06 1020.36 1020.65 1020.91 1021.12 1021.27 1021.36 1021.40 1021.40 1021.39 1021.39 1021.42 1021.47 1021.57 1021.69 1021.85 1022.01 1022.18 1022.35 1022.51 1022.67 1022.83 1023.00 1023.17 1023.36 1023.57 1023.77 1023.98 1024.18 1024.36 1024.52 1024.67 1024.79 1024.90
1017.95 1018.22 1018.49 1018.75 1019.00 1019.24 1019.48 1019.73 1020.00 1020.29 1020.59 1020.87 1021.13 1021.34 1021.49 1021.57 1021.59 1021.56 1021.51 1021.45 1021.42 1021.43 1021.48 1021.58 1021.72 1021.89 1022.07 1022.25 1022.43 1022.59 1022.76 1022.92 1023.09 1023.27 1023.46 1023.67 1023.87 1024.08 1024.27 1024.44 1024.59 1024.72 1024.84
1017.58 1017.89 1018.23 1018.58 1018.92 1019.25 1019.55 1019.84 1020.13 1020.42 1020.71 1020.99 1021.25 1021.47 1021.62 1021.71 1021.73 1021.68 1021.60 1021.51 1021.42 1021.38 1021.39 1021.45 1021.57 1021.72 1021.90 1022.08 1022.26 1022.43 1022.59 1022.75 1022.92 1023.09 1023.28 1023.48 1023.69 1023.90 1024.09 1024.27 1024.43 1024.57 1024.69
1017.17 1017.51 1017.92 1018.35 1018.77 1019.16 1019.52 1019.84 1020.13 1020.42 1020.70 1020.97 1021.23 1021.46 1021.63 1021.75 1021.79 1021.75 1021.67 1021.55 1021.43 1021.34 1021.30 1021.31 1021.39 1021.51 1021.67 1021.84 1022.02 1022.19 1022.35 1022.51 1022.67 1022.84 1023.03 1023.23 1023.43 1023.64 1023.84 1024.03 1024.19 1024.34 1024.46
1016.75 1017.12 1017.57 1018.05 1018.53 1018.97 1019.36 1019.70 1019.99 1020.26 1020.52 1020.79 1021.05 1021.31 1021.52 1021.68 1021.76 1021.77 1021.70 1021.58 1021.44 1021.31 1021.22 1021.18 1021.20 1021.28 1021.40 1021.55 1021.71 1021.88 1022.04 1022.20 1022.37 1022.54 1022.72 1022.92 1023.13 1023.34 1023.54 1023.72 1023.89 1024.03 1024.16
1016.35 1016.73 1017.20 1017.72 1018.23 1018.70 1019.10 1019.43 1019.71 1019.96 1020.21 1020.47 1020.75 1021.03 1021.30 1021.51 1021.66 1021.71 1021.68 1021.58 1021.43 1021.27 1021.13 1021.04 1021.00 1021.03 1021.10 1021.22 1021.36 1021.52 1021.68 1021.84 1022.01 1022.19 1022.38 1022.58 1022.79 1023.00 1023.19 1023.37 1023.53 1023.67 1023.79
1015.98 1016.36 1016.84 1017.37 1017.89 1018.36 1018.76 1019.08 1019.34 1019.57 1019.80 1020.06 1020.35 1020.67 1020.98 1021.26 1021.47 1021.59 1021.60 1021.53 1021.38 1021.21 1021.03 1020.88 1020.78 1020.75 1020.78 1020.86 1020.97 1021.12 1021.27 1021.44 1021.62 1021.81 1022.01 1022.21 1022.42 1022.63 1022.82 1023.00 1023.15 1023.28 1023.39
1015.64 1016.02 1016.49 1017.01 1017.52 1017.98 1018.37 1018.67 1018.91 1019.12 1019.35 1019.61 1019.92 1020.26 1020.62 1020.95 1021.22 1021.39 1021.45 1021.40 1021.27 1021.08 1020.87 1020.68 1020.53 1020.44 1020.42 1020.46 1020.55 1020.68 1020.84 1021.01 1021.19 1021.39 1021.60 1021.81 1022.03 1022.23 1022.42 1022.59 1022.74 1022.86 1022.96
1015.32 1015.69 1016.15 1016.65 1017.15 1017.59 1017.96 1018.25 1018.48 1018.68 1018.90 1019.16 1019.48 1019.84 1020.23 1020.60 1020.91 1021.12 1021.21 1021.19 1021.07 1020.87 1020.65 1020.42 1020.24 1020.11 1020.05 1020.05 1020.11 1020.22 1020.36 1020.53 1020.72 1020.93 1021.14 1021.36 1021.58 1021.79 1021.99 1022.16 1022.31 1022.43 1022.54
1015.02 1015.37 1015.81 1016.29 1016.77 1017.20 1017.55 1017.84 1018.06 1018.27 1018.48 1018.75 1019.07 1019.44 1019.83 1020.22 1020.54 1020.78 1020.90 1020.89 1020.78 1020.59 1020.36 1020.12 1019.91 1019.75 1019.65 1019.62 1019.65 1019.73 1019.86 1020.02 1020.20 1020.40 1020.62 1020.85 1021.07 1021.30 1021.50 1021.69 1021.85 1021.99 1022.12
1014.72 1015.06 1015.48 1015.93 1016.39 1016.80 1017.15 1017.44 1017.67 1017.89 1018.11 1018.37 1018.69 1019.05 1019.44 1019.82 1020.14 1020.38 1020.51 1020.52 1020.43 1020.25 1020.03 1019.79 1019.57 1019.39 1019.27 1019.21 1019.20 1019.25 1019.34 1019.47 1019.64 1019.83 1020.04 1020.27 1020.50 1020.74 1020.97 1021.19 1021.38 1021.56 1021.72
1014.43 1014.75 1015.14 1015.57 1016.00 1016.41 1016.76 1017.06 1017.31 1017.53 1017.77 1018.03 1018.34 1018.69 1019.05 1019.41 1019.72 1019.95 1020.09 1020.11 1020.04 1019.89 1019.69 1019.46 1019.25 1019.06 1018.92 1018.83 1018.79 1018.79 1018.84 1018.93 1019.06 1019.22 1019.42 1019.64 1019.89 1020.15 1020.41 1020.67 1020.92 1021.16 1021.38
1014.17 1014.45 1014.81 1015.21 1015.62 1016.01 1016.37 1016.68 1016.95 1017.20 1017.45 1017.72 1018.01 1018.34 1018.68 1019.01 1019.30 1019.52 1019.66 1019.70 1019.66 1019.54 1019.38 1019.18 1018.99 1018.81 1018.65 1018.53 1018.45 1018.40 1018.40 1018.43 1018.51 1018.64 1018.81 1019.03 1019.29 1019.57 1019.88 1020.19 1020.50 1020.81 1021.10
1013.95 1014.20 1014.51 1014.87 1015.25 1015.63 1015.99 1016.31 1016.60 1016.87 1017.13 1017.40 1017.70 1018.00 1018.32 1018.63 1018.90 1019.12 1019.26 1019.33 1019.33 1019.26 1019.14 1018.99 1018.82 1018.65 1018.49 1018.35 1018.23 1018.13 1018.06 1018.03 1018.06 1018.14 1018.29 1018.50 1018.77 1019.08 1019.43 1019.80 1020.18 1020.56 1020.94
1013.81 1014.00 1014.27 1014.58 1014.93 1015.29 1015.64 1015.96 1016.26 1016.55 1016.82 1017.10 1017.38 1017.68 1017.98 1018.27 1018.54 1018.76 1018.93 1019.03 1019.07 1019.05 1018.99 1018.89 1018.76 1018.62 1018.46 1018.30 1018.14 1017.99 1017.87 1017.79 1017.77 1017.81 1017.94 1018.14 1018.41 1018.75 1019.14 1019.57 1020.01 1020.46 1020.90
1013.74 1013.89 1014.10 1014.37 1014.68 1015.01 1015.34 1015.66 1015.96 1016.25 1016.53 1016.81 1017.09 1017.39 1017.68 1017.97 1018.24 1018.47 1018.67 1018.81 1018.91 1018.95 1018.94 1018.90 1018.81 1018.69 1018.55 1018.38 1018.20 1018.02 1017.86 1017.75 1017.69 1017.71 1017.81 1018.01 1018.29 1018.65 1019.08 1019.54 1020.03 1020.52 1021.00
1013.75 1013.86 1014.04 1014.26 1014.53 1014.83 1015.13 1015.43 1015.72 1016.00 1016.28 1016.56 1016.85 1017.14 1017.43 1017.73 1018.01 1018.27 1018.50 1018.69 1018.84 1018.94 1018.99 1019.00 1018.95 1018.87 1018.74 1018.58 1018.40 1018.22 1018.05 1017.91 1017.84 1017.85 1017.95 1018.15 1018.45 1018.82 1019.26 1019.75 1020.25 1020.76 1021.25
1013.83 1013.92 1014.07 1014.26 1014.50 1014.76 1015.04 1015.31 1015.58 1015.85 1016.12 1016.40 1016.68 1016.97 1017.28 1017.58 1017.89 1018.17 1018.44 1018.67 1018.86 1019.01 1019.11 1019.17 1019.17 1019.12 1019.02 1018.89 1018.73 1018.56 1018.41 1018.29 1018.23 1018.25 1018.37 1018.57 1018.87 1019.25 1019.69 1020.17 1020.66 1021.15 1021.61
1013.97 1014.06 1014.20 1014.38 1014.60 1014.83 1015.08 1015.33 1015.58 1015.83 1016.09 1016.35 1016.63 1016.93 1017.24 1017.56 1017.89 1018.20 1018.49 1018.76 1018.98 1019.17 1019.31 1019.40 1019.44 1019.43 1019.37 1019.28 1019.16 1019.03 1018.92 1018.84 1018.82 1018.87 1019.01 1019.23 1019.53 1019.90 1020.32 1020.77 1021.22 1021.65 1022.06
1014.13 1014.25 1014.40 1014.60 1014.81 1015.04 1015.28 1015.51 1015.74 1015.97 1016.21 1016.47 1016.75 1017.05 1017.36 1017.70 1018.04 1018.36 1018.68 1018.96 1019.21 1019.42 1019.58 1019.70 1019.77 1019.79 1019.78 1019.73 1019.66 1019.59 1019.54 1019.52 1019.55 1019.64 1019.80 1020.04 1020.34 1020.69 1021.07 1021.46 1021.85 1022.21 1022.53
1014.32 1014.48 1014.68 1014.91 1015.15 1015.39 1015.63 1015.85 1016.07 1016.29 1016.52 1016.77 1017.05 1017.35 1017.67 1018.01 1018.36 1018.70 1019.02 1019.31 1019.56 1019.77 1019.94 1020.07 1020.16 1020.21 1020.23 1020.23 1020.21 1020.21 1020.22 1020.25 1020.34 1020.47 1020.67 1020.91 1021.20 1021.51 1021.85 1022.17 1022.48 1022.75 1022.98
1014.55 1014.77 1015.03 1015.31 1015.59 1015.86 1016.11 1016.35 1016.57 1016.79 1017.02 1017.27 1017.55 1017.85 1018.18 1018.52 1018.87 1019.20 1019.52 1019.80 1020.04 1020.24 1020.40 1020.53 1020.61 1020.68 1020.72 1020.76 1020.79 1020.84 1020.90 1020.99 1021.12 1021.29 1021.50 1021.74 1022.00 1022.28 1022.55 1022.81 1023.04 1023.22 1023.36
1014.82 1015.11 1015.44 1015.78 1016.11 1016.43 1016.72 1016.98 1017.22 1017.46 1017.70 1017.95 1018.23 1018.54 1018.87 1019.21 1019.54 1019.87 1020.16 1020.43 1020.64 1020.82 1020.96 1021.07 1021.15 1021.21 1021.26 1021.32 1021.38 1021.46 1021.56 1021.68 1021.84 1022.02 1022.23 1022.45 1022.69 1022.92 1023.13 1023.32 1023.47 1023.57 1023.64
Thickness
5738 5738 5737 5737 5736 5735 5734 5733 5732 5732 5731 5730 5729 5728 5727 5725 5723 5722 5720 5719 5718 5716 5715 5714 5713 5712 5710 5709 5708 5707 5706 5705 5704 5703 5702 5701 5700 5699 5698 5697 5696 5695 5695
5738 5737 5736 5736 5735 5735 5734 5733 5732 5732 5731 5730 5729 5728 5727 5725 5724 5722 5720 5719 5718 5716 5715 5714 5713 5712 5710 5709 5708 5707 5706 5704 5703 5702 5701 5700 5699 5698 5697 5696 5695 5695 5694
5738 5737 5736 5735 5735 5734 5734 5733 5732 5731 5731 5730 5729 5728 5726 5725 5724 5722 5721 5719 5718 5717 5716 5714 5713 5712 5710 5709 5708 5706 5705 5704 5703 5702 5701 5700 5699 5698 5697 5696 5695 5694 5693
5738 5737 5736 5735 5735 5734 5733 5732 5731 5730 5729 5728 5727 5727 5726 5725 5724 5722 5721 5720 5718 5717 5716 5715 5713 5712 5711 5710 5708 5707 5706 5704 5703 5702 5701 5700 5698 5697 5696 5695 5695 5694 5693
5737 5736 5736 5735 5735 5734 5733 5732 5730 5729 5728 5727 5726 5725 5725 5724 5724 5723 5722 5720 5719 5718 5717 5715 5714 5713 5712 5711 5710 5708 5707 5706 5704 5703 5701 5700 5699 5698 5697 5695 5695 5694 5693
5737 5736 5736 5735 5734 5733 5732 5732 5730 5729 5727 5726 5726 5724 5724 5724 5723 5723 5722 5721 5720 5719 5718 5716 5715 5714 5713 5712 5711 5710 5708 5707 5706 5704 5702 5701 5700 5699 5697 5696 5695 5694 5693
5738 5737 5736 5735 5734 5733 5733 5732 5729 5727 5725 5725 5722 5719 5721 5723 5723 5723 5723 5722 5722 5721 5719 5718 5716 5715 5714 5713 5712 5711 5710 5709 5707 5706 5704 5702 5701 5700 5698 5697 5696 5695 5694
5739 5738 5737 5736 5735 5734 5732 5731 5729 5726 5725 5724 5721 5716 5713 5716 5721 5724 5723 5723 5723 5722 5721 5720 5718 5717 5716 5715 5714 5713 5712 5710 5709 5707 5706 5704 5702 5701 5700 5698 5697 5696 5694
5740 5739 5739 5737 5736 5735 5733 5731 5730 5727 5724 5723 5724 5719 5712 5710 5716 5721 5723 5724 5724 5723 5722 5721 5720 5719 5718 5717 5716 5715 5713 5712 5710 5709 5707 5706 5704 5702 5701 5699 5698 5696 5695
5741 5740 5739 5738 5736 5735 5733 5732 5731 5729 5726 5722 5721 5722 5721 5720 5715 5715 5720 5723 5724 5724 5723 5722 5722 5721 5720 5719 5718 5717 5715 5714 5712 5710 5709 5707 5705 5704 5702 5700 5698 5697 5695
5741 5741 5740 5738 5736 5735 5734 5732 5731 5729 5727 5724 5722 5721 5719 5718 5718 5715 5714 5718 5721 5724 5724 5724 5723 5722 5721 5720 5719 5718 5717 5715 5713 5711 5710 5708 5706 5704 5703 5701 5699 5698 5696
5741 5740 5739 5738 5737 5735 5734 5732 5731 5729 5728 5726 5725 5723 5721 5718 5717 5715 5714 5715 5717 5721 5723 5724 5723 5723 5722 5721 5720 5719 5718 5716 5714 5712 5710 5709 5707 5705 5703 5701 5700 5698 5696
5740 5740 5739 5737 5736 5735 5734 5733 5731 5729 5728 5726 5725 5724 5724 5723 5722 5719 5716 5714 5714 5717 5720 5722 5722 5722 5721 5721 5720 5719 5718 5716 5714 5712 5711 5709 5707 5705 5703 5702 5700 5698 5696
5741 5741 5739 5738 5736 5735 5734 5732 5730 5729 5728 5726 5725 5724 5723 5723 5722 5720 5717 5713 5711 5712 5714 5717 5720 5720 5720 5719 5719 5718 5716 5715 5714 5712 5710 5707 5706 5704 5702 5700 5698 5696 5695
5740 5739 5738 5737 5735 5734 5733 5732 5730 5728 5727 5726 5724 5723 5722 5722 5721 5720 5719 5717 5711 5707 5709 5713 5715 5717 5717 5716 5716 5715 5714 5713 5712 5710 5708 5706 5704 5702 5700 5698 5696 5694 5692
5738 5737 5737 5736 5734 5733 5732 5730 5729 5727 5725 5724 5723 5721 5720 5720 5719 5718 5717 5715 5713 5710 5707 5711 5711 5712 5712 5713 5712 5711 5710 5709 5708 5706 5705 5703 5701 5699 5697 5695 5692 5690 5688
5736 5735 5734 5733 5732 5731 5730 5728 5726 5725 5723 5722 5720 5719 5718 5716 5715 5714 5713 5712 5710 5708 5705 5706 5706 5707 5707 5706 5706 5705 5704 5703 5702 5701 5699 5698 5696 5694 5692 5689 5687 5685 5683
5733 5732 5731 5730 5729 5728 5727 5725 5723 5721 5719 5718 5717 5715 5714 5712 5710 5709 5708 5707 5706 5705 5702 5700 5701 5700 5700 5700 5699 5698 5697 5696 5694 5694 5693 5691 5689 5688 5685 5683 5680 5678 5676
5729 5728 5727 5726 5725 5724 5722 5721 5719 5717 5716 5714 5712 5710 5709 5707 5705 5704 5703 5702 5701 5701 5699 5697 5695 5693 5693 5692 5691 5690 5688 5687 5686 5685 5683 5682 5681 5679 5677 5675 5673 5671 5669
5723 5722 5721 5720 5720 5718 5717 5716 5715 5713 5710 5708 5707 5706 5704 5703 5701 5699 5698 5696 5696 5694 5692 5690 5688 5686 5684 5683 5682 5679 5677 5676 5675 5675 5673 5671 5670 5668 5667 5665 5664 5662 5660
5717 5717 5716 5715 5714 5713 5712 5711 5710 5708 5705 5702 5700 5699 5698 5697 5696 5695 5693 5691 5690 5687 5685 5682 5680 5678 5675 5673 5671 5670 5668 5666 5665 5663 5662 5661 5659 5657 5655 5654 5652 5651 5649
5711 5710 5709 5708 5707 5706 5705 5705 5703 5701 5699 5696 5693 5691 5691 5690 5689 5688 5686 5685 5684 5681 5677 5674 5671 5668 5666 5664 5663 5661 5659 5657 5654 5652 5651 5649 5647 5645 5643 5641 5640 5638 5636
5703 5702 5701 5700 5699 5698 5697 5696 5696 5694 5691 5688 5686 5684 5683 5682 5680 5679 5677 5675 5673 5672 5670 5667 5663 5660 5658 5656 5654 5652 5649 5646 5643 5641 5639 5636 5634 5632 5630 5628 5627 5626 5624
5695 5693 5692 5691 5690 5689 5688 5688 5687 5685 5682 5679 5676 5675 5673 5671 5670 5668 5666 5663 5661 5659 5658 5656 5654 5650 5648 5646 5645 5642 5638 5635 5632 5629 5628 5624 5620 5618 5616 5614 5613 5612 5610
5687 5685 5684 5683 5682 5680 5680 5679 5678 5676 5672 5668 5666 5665 5663 5661 5659 5659 5656 5652 5649 5645 5644 5642 5641 5638 5636 5635 5633 5631 5628 5625 5621 5617 5613 5611 5608 5605 5603 5601 5599 5597 5596
5679 5677 5675 5674 5673 5671 5670 5670 5669 5667 5663 5659 5656 5653 5652 5650 5648 5647 5645 5641 5636 5632 5631 5630 5627 5625 5623 5621 5619 5617 5615 5612 5609 5605 5601 5598 5595 5592 5590 5587 5584 5582 5581